SIA157 VDPP-WSSS

Flight info

Callsign SIA157
Flight time 1h 42m
Altitude 40000
Route CONDA2 KISAN M755 BITOD/K0896F410 M753 IPRIX/N0484F410 Q802 ELALO ELALO1B
Aircraft A359/H-SDE1E2E3GHIJ1J2J3J5M1P2RWXYZ/LB1D1

Departure

Time 2026-04-15 14:42
Airport Phnom Penh International Airport (VDPP)

Arrival

Time 2026-04-15 16:25
Airport Singapore Changi Airport (WSSS)
Time Latitude Longitude Altitude Speed Heading
2026-04-15 14:04 11.55200 104.84567 69 ft 0 kts 335°
2026-04-15 14:31 11.55205 104.84565 62 ft 1 kts 335°
2026-04-15 14:31 11.55192 104.84570 67 ft 4 kts 337°
2026-04-15 14:31 11.55168 104.84581 58 ft 4 kts 343°
2026-04-15 14:32 11.55133 104.84587 59 ft 4 kts 360°
2026-04-15 14:32 11.55106 104.84586 62 ft 4 kts 11°
2026-04-15 14:32 11.55089 104.84582 61 ft 4 kts 17°
2026-04-15 14:32 11.55097 104.84584 58 ft 6 kts 18°
2026-04-15 14:33 11.55126 104.84593 59 ft 4 kts 18°
2026-04-15 14:33 11.55145 104.84599 61 ft 0 kts 18°
2026-04-15 14:37 11.55148 104.84600 62 ft 4 kts 19°
2026-04-15 14:37 11.55214 104.84672 63 ft 16 kts 56°
2026-04-15 14:38 11.55223 104.84751 63 ft 9 kts 111°
2026-04-15 14:38 11.55180 104.84808 61 ft 11 kts 133°
2026-04-15 14:38 11.55137 104.84871 63 ft 11 kts 101°
2026-04-15 14:38 11.55166 104.84945 61 ft 12 kts 51°
2026-04-15 14:39 11.55232 104.85015 61 ft 15 kts 45°
2026-04-15 14:39 11.55311 104.85098 62 ft 18 kts 46°
2026-04-15 14:39 11.55405 104.85196 60 ft 20 kts 46°
2026-04-15 14:39 11.55492 104.85287 61 ft 9 kts 45°
2026-04-15 14:40 11.55552 104.85322 65 ft 11 kts 15°
2026-04-15 14:40 11.55579 104.85358 61 ft 4 kts 97°
2026-04-15 14:40 11.55564 104.85378 63 ft 2 kts 158°
2026-04-15 14:40 11.55560 104.85377 64 ft 1 kts 178°
2026-04-15 14:41 11.55552 104.85370 63 ft 0 kts 219°
2026-04-15 14:41 11.55525 104.85328 59 ft 12 kts 237°
2026-04-15 14:41 11.55465 104.85259 61 ft 14 kts 226°
2026-04-15 14:42 11.55383 104.85172 61 ft 29 kts 225°
2026-04-15 14:42 11.55056 104.84833 66 ft 103 kts 225°
2026-04-15 14:42 11.54402 104.84159 91 ft 162 kts 225°
2026-04-15 14:42 11.53559 104.83397 733 ft 164 kts 211°
2026-04-15 14:43 11.52470 104.83188 1541 ft 160 kts 184°
2026-04-15 14:43 11.51323 104.83128 1869 ft 173 kts 185°
2026-04-15 14:43 11.50054 104.83017 2076 ft 193 kts 187°
2026-04-15 14:43 11.48654 104.82863 2328 ft 211 kts 187°
2026-04-15 14:44 11.47153 104.82678 2671 ft 222 kts 187°
2026-04-15 14:44 11.45560 104.82474 2915 ft 243 kts 187°
2026-04-15 14:44 11.43833 104.82250 3328 ft 255 kts 187°
2026-04-15 14:44 11.42058 104.82016 3918 ft 259 kts 187°
2026-04-15 14:45 11.40258 104.81778 4521 ft 263 kts 186°
2026-04-15 14:45 11.38419 104.81535 5099 ft 268 kts 186°
2026-04-15 14:45 11.36555 104.81288 5681 ft 272 kts 186°
2026-04-15 14:45 11.34680 104.81040 6255 ft 276 kts 186°
2026-04-15 14:46 11.32769 104.80787 6798 ft 280 kts 186°
2026-04-15 14:46 11.30830 104.80473 7354 ft 283 kts 189°
2026-04-15 14:46 11.28886 104.80126 7932 ft 285 kts 189°
2026-04-15 14:46 11.26910 104.79781 8497 ft 288 kts 189°
2026-04-15 14:47 11.24924 104.79440 9085 ft 290 kts 189°
2026-04-15 14:47 11.22924 104.79101 9658 ft 293 kts 189°
2026-04-15 14:47 11.20900 104.78758 10174 ft 297 kts 189°
2026-04-15 14:47 11.18810 104.78406 10438 ft 310 kts 188°
2026-04-15 14:48 11.16635 104.78040 10680 ft 323 kts 189°
2026-04-15 14:48 11.14398 104.77664 10916 ft 335 kts 189°
2026-04-15 14:48 11.12056 104.77270 11152 ft 346 kts 189°
2026-04-15 14:48 11.09637 104.76863 11396 ft 356 kts 189°
2026-04-15 14:49 11.07175 104.76449 11719 ft 361 kts 189°
2026-04-15 14:49 11.04707 104.76035 12106 ft 365 kts 189°
2026-04-15 14:49 11.02180 104.75616 12515 ft 368 kts 189°
2026-04-15 14:49 10.99639 104.75187 12912 ft 371 kts 189°
2026-04-15 14:50 10.97089 104.74756 13309 ft 373 kts 189°
2026-04-15 14:50 10.94505 104.74320 13715 ft 376 kts 189°
2026-04-15 14:50 10.91921 104.73885 14060 ft 378 kts 189°
2026-04-15 14:50 10.89316 104.73447 14401 ft 380 kts 189°
2026-04-15 14:51 10.86690 104.73006 14755 ft 382 kts 189°
2026-04-15 14:51 10.84092 104.72570 15106 ft 384 kts 189°
2026-04-15 14:51 10.81440 104.72124 15453 ft 386 kts 189°
2026-04-15 14:51 10.78769 104.71675 15818 ft 389 kts 189°
2026-04-15 14:52 10.76098 104.71227 16172 ft 391 kts 189°
2026-04-15 14:52 10.73401 104.70775 16525 ft 393 kts 188°
2026-04-15 14:52 10.70692 104.70321 16871 ft 395 kts 189°
2026-04-15 14:52 10.67980 104.69866 17231 ft 397 kts 189°
2026-04-15 14:53 10.65246 104.69407 17575 ft 399 kts 189°
2026-04-15 14:53 10.62488 104.68944 17921 ft 401 kts 188°
2026-04-15 14:53 10.59761 104.68487 18239 ft 404 kts 188°
2026-04-15 14:53 10.56983 104.68022 18529 ft 405 kts 188°
2026-04-15 14:54 10.54188 104.67554 18843 ft 407 kts 188°
2026-04-15 14:54 10.51392 104.67087 19141 ft 408 kts 189°
2026-04-15 14:54 10.48589 104.66593 19446 ft 410 kts 189°
2026-04-15 14:54 10.45770 104.66078 19755 ft 411 kts 189°
2026-04-15 14:55 10.42947 104.65557 20045 ft 413 kts 189°
2026-04-15 14:55 10.40141 104.65042 20340 ft 414 kts 189°
2026-04-15 14:55 10.37297 104.64524 20634 ft 416 kts 189°
2026-04-15 14:55 10.34438 104.64007 20925 ft 417 kts 189°
2026-04-15 14:56 10.31564 104.63490 21213 ft 419 kts 189°
2026-04-15 14:56 10.28687 104.62974 21501 ft 420 kts 189°
2026-04-15 14:56 10.25806 104.62457 21786 ft 422 kts 189°
2026-04-15 14:56 10.22910 104.61938 22072 ft 423 kts 189°
2026-04-15 14:57 10.20004 104.61418 22353 ft 425 kts 189°
2026-04-15 14:57 10.17087 104.60895 22632 ft 426 kts 189°
2026-04-15 14:57 10.14191 104.60375 22910 ft 427 kts 189°
2026-04-15 14:57 10.11270 104.59852 23170 ft 429 kts 189°
2026-04-15 14:58 10.08325 104.59324 23428 ft 430 kts 189°
2026-04-15 14:58 10.05356 104.58793 23643 ft 432 kts 189°
2026-04-15 14:58 10.02397 104.58282 23858 ft 433 kts 189°
2026-04-15 14:58 9.99408 104.57777 24066 ft 435 kts 189°
2026-04-15 14:59 9.96420 104.57277 24286 ft 436 kts 189°
2026-04-15 14:59 9.93448 104.56779 24502 ft 437 kts 189°
2026-04-15 14:59 9.90436 104.56273 24709 ft 438 kts 189°
2026-04-15 14:59 9.87422 104.55765 24923 ft 440 kts 189°
2026-04-15 15:00 9.84391 104.55253 25134 ft 441 kts 189°
2026-04-15 15:00 9.81342 104.54738 25356 ft 443 kts 189°
2026-04-15 15:00 9.78298 104.54223 25554 ft 444 kts 189°
2026-04-15 15:00 9.75239 104.53706 25776 ft 445 kts 189°
2026-04-15 15:01 9.72172 104.53188 25987 ft 447 kts 189°
2026-04-15 15:01 9.69109 104.52671 26194 ft 449 kts 189°
2026-04-15 15:01 9.66058 104.52155 26389 ft 450 kts 190°
2026-04-15 15:01 9.62945 104.51630 26603 ft 452 kts 190°
2026-04-15 15:02 9.59831 104.51104 26826 ft 454 kts 190°
2026-04-15 15:02 9.56728 104.50581 27038 ft 455 kts 190°
2026-04-15 15:02 9.53599 104.50053 27254 ft 457 kts 190°
2026-04-15 15:02 9.50447 104.49521 27474 ft 459 kts 190°
2026-04-15 15:03 9.47311 104.48992 27703 ft 460 kts 190°
2026-04-15 15:03 9.44148 104.48458 27926 ft 462 kts 190°
2026-04-15 15:03 9.40971 104.47922 28147 ft 464 kts 190°
2026-04-15 15:03 9.37777 104.47384 28381 ft 466 kts 190°
2026-04-15 15:04 9.34580 104.46845 28601 ft 467 kts 190°
2026-04-15 15:04 9.31355 104.46302 28818 ft 469 kts 190°
2026-04-15 15:04 9.28131 104.45758 29038 ft 471 kts 190°
2026-04-15 15:04 9.24890 104.45212 29239 ft 473 kts 190°
2026-04-15 15:05 9.21633 104.44664 29464 ft 475 kts 191°
2026-04-15 15:05 9.18362 104.44113 29675 ft 477 kts 191°
2026-04-15 15:05 9.15085 104.43561 29900 ft 478 kts 191°
2026-04-15 15:05 9.11818 104.43011 30114 ft 480 kts 191°
2026-04-15 15:06 9.05207 104.41899 30522 ft 483 kts 191°
2026-04-15 15:06 9.01883 104.41340 30750 ft 485 kts 191°
2026-04-15 15:06 8.98545 104.40779 30965 ft 486 kts 191°
2026-04-15 15:07 8.95207 104.40218 31189 ft 487 kts 191°
2026-04-15 15:07 8.91854 104.39654 31416 ft 489 kts 190°
2026-04-15 15:07 8.88527 104.39094 31624 ft 490 kts 190°
2026-04-15 15:07 8.85155 104.38528 31838 ft 491 kts 190°
2026-04-15 15:08 8.81770 104.37959 32044 ft 493 kts 190°
2026-04-15 15:08 8.78387 104.37391 32242 ft 494 kts 190°
2026-04-15 15:08 8.74990 104.36820 32445 ft 495 kts 190°
2026-04-15 15:08 8.71576 104.36247 32648 ft 496 kts 190°
2026-04-15 15:09 8.68169 104.35675 32842 ft 497 kts 190°
2026-04-15 15:09 8.64755 104.35101 33035 ft 498 kts 190°
2026-04-15 15:09 8.61369 104.34533 33227 ft 499 kts 190°
2026-04-15 15:09 8.59046 104.34143 33363 ft 500 kts 190°
2026-04-15 15:10 8.54503 104.33381 33670 ft 500 kts 190°
2026-04-15 15:10 8.51068 104.32805 33960 ft 499 kts 190°
2026-04-15 15:10 8.47650 104.32232 34207 ft 498 kts 190°
2026-04-15 15:10 8.44230 104.31659 34463 ft 497 kts 190°
2026-04-15 15:11 8.40811 104.31085 34724 ft 497 kts 190°
2026-04-15 15:11 8.37405 104.30515 35004 ft 496 kts 190°
2026-04-15 15:11 8.34004 104.29945 35289 ft 494 kts 190°
2026-04-15 15:11 8.30601 104.29374 35592 ft 493 kts 190°
2026-04-15 15:12 8.27214 104.28807 35890 ft 493 kts 190°
2026-04-15 15:12 8.23882 104.28248 36189 ft 492 kts 190°
2026-04-15 15:12 8.20494 104.27681 36497 ft 491 kts 189°
2026-04-15 15:12 8.17137 104.27119 36796 ft 490 kts 189°
2026-04-15 15:13 8.13773 104.26555 37096 ft 489 kts 189°
2026-04-15 15:13 8.10454 104.26000 37392 ft 488 kts 189°
2026-04-15 15:13 8.07104 104.25439 37678 ft 487 kts 189°
2026-04-15 15:13 8.03756 104.24879 37993 ft 486 kts 189°
2026-04-15 15:14 8.00419 104.24320 38299 ft 485 kts 189°
2026-04-15 15:14 7.97084 104.23762 38594 ft 484 kts 189°
2026-04-15 15:14 7.93790 104.23211 38815 ft 484 kts 189°
2026-04-15 15:14 7.90469 104.22656 39061 ft 483 kts 189°
2026-04-15 15:15 7.87159 104.22102 39304 ft 482 kts 189°
2026-04-15 15:15 7.83854 104.21549 39540 ft 481 kts 189°
2026-04-15 15:15 7.80550 104.20997 39776 ft 480 kts 189°
2026-04-15 15:15 7.77246 104.20445 39891 ft 481 kts 189°
2026-04-15 15:16 7.70638 104.19341 39900 ft 479 kts 189°
2026-04-15 15:16 7.64092 104.18248 39904 ft 479 kts 189°
2026-04-15 15:17 7.57515 104.17149 39901 ft 479 kts 189°
2026-04-15 15:17 7.50933 104.16051 39900 ft 479 kts 189°
2026-04-15 15:18 7.44344 104.14951 39903 ft 479 kts 189°
2026-04-15 15:18 7.37801 104.13860 39907 ft 479 kts 189°
2026-04-15 15:19 7.31227 104.12763 39905 ft 479 kts 189°
2026-04-15 15:19 7.24609 104.11980 39905 ft 478 kts 179°
2026-04-15 15:20 7.19074 104.12144 40099 ft 478 kts 177°
2026-04-15 15:20 7.14620 104.12369 40425 ft 477 kts 176°
2026-04-15 15:20 7.11317 104.12552 40667 ft 476 kts 176°
2026-04-15 15:21 7.09125 104.12673 40815 ft 475 kts 176°
2026-04-15 15:21 7.05799 104.12856 40909 ft 477 kts 176°
2026-04-15 15:21 6.99237 104.13336 40922 ft 474 kts 171°
2026-04-15 15:22 6.92719 104.14323 40895 ft 473 kts 171°
2026-04-15 15:22 6.86199 104.15383 40905 ft 473 kts 170°
2026-04-15 15:23 6.79684 104.16448 40908 ft 474 kts 170°
2026-04-15 15:23 6.73175 104.17504 40904 ft 473 kts 170°
2026-04-15 15:24 6.66718 104.18548 40907 ft 473 kts 170°
2026-04-15 15:24 6.60195 104.19601 40899 ft 473 kts 170°
2026-04-15 15:25 6.53679 104.20654 40899 ft 473 kts 170°
2026-04-15 15:25 6.47223 104.21696 40916 ft 473 kts 170°
2026-04-15 15:26 6.40712 104.22747 40922 ft 473 kts 170°
2026-04-15 15:26 6.34206 104.23798 40902 ft 473 kts 170°
2026-04-15 15:27 6.27698 104.24848 40903 ft 473 kts 170°
2026-04-15 15:27 6.21242 104.25889 40902 ft 473 kts 170°
2026-04-15 15:28 6.14731 104.26939 40909 ft 473 kts 170°
2026-04-15 15:28 6.08212 104.27990 40908 ft 473 kts 170°
2026-04-15 15:29 6.01727 104.29036 40904 ft 473 kts 170°
2026-04-15 15:29 5.95227 104.30084 40909 ft 474 kts 170°
2026-04-15 15:30 5.88703 104.31135 40904 ft 474 kts 170°
2026-04-15 15:30 5.82208 104.32181 40902 ft 474 kts 170°
2026-04-15 15:31 5.75683 104.33232 40906 ft 474 kts 170°
2026-04-15 15:31 5.69156 104.34283 40906 ft 475 kts 170°
2026-04-15 15:32 5.62606 104.35337 40905 ft 475 kts 170°
2026-04-15 15:32 5.56081 104.36387 40903 ft 475 kts 170°
2026-04-15 15:33 5.49606 104.37429 40905 ft 475 kts 170°
2026-04-15 15:33 5.43064 104.38481 40901 ft 475 kts 170°
2026-04-15 15:34 5.36538 104.39531 40904 ft 474 kts 170°
2026-04-15 15:34 5.30011 104.40580 40904 ft 474 kts 170°
2026-04-15 15:35 5.23520 104.41624 40902 ft 475 kts 170°
2026-04-15 15:35 5.16988 104.42674 40903 ft 475 kts 170°
2026-04-15 15:36 5.10462 104.43723 40900 ft 475 kts 170°
2026-04-15 15:36 5.03943 104.44770 40899 ft 475 kts 171°
2026-04-15 15:37 4.97410 104.45820 40901 ft 475 kts 171°
2026-04-15 15:37 4.90874 104.46870 40898 ft 475 kts 171°
2026-04-15 15:38 4.84377 104.47894 40901 ft 475 kts 172°
2026-04-15 15:38 4.77798 104.48687 40897 ft 476 kts 173°
2026-04-15 15:39 4.71228 104.49493 40911 ft 476 kts 172°
2026-04-15 15:39 4.64643 104.50317 40916 ft 476 kts 172°
2026-04-15 15:40 4.58103 104.51140 40910 ft 476 kts 172°
2026-04-15 15:40 4.51521 104.51970 40890 ft 476 kts 172°
2026-04-15 15:41 4.44945 104.52799 40894 ft 477 kts 172°
2026-04-15 15:41 4.38349 104.53631 40900 ft 477 kts 172°
2026-04-15 15:42 4.31812 104.54455 40897 ft 477 kts 172°
2026-04-15 15:42 4.25221 104.55286 40914 ft 477 kts 172°
2026-04-15 15:43 4.18630 104.56103 40909 ft 477 kts 173°
2026-04-15 15:43 4.12010 104.56723 40910 ft 477 kts 174°
2026-04-15 15:44 4.05428 104.57349 40912 ft 477 kts 174°
2026-04-15 15:44 3.98818 104.57990 40899 ft 478 kts 174°
2026-04-15 15:45 3.92199 104.58636 40911 ft 478 kts 174°
2026-04-15 15:45 3.85586 104.59283 40914 ft 478 kts 174°
2026-04-15 15:46 3.78949 104.59933 40901 ft 479 kts 174°
2026-04-15 15:46 3.72323 104.60584 40904 ft 479 kts 174°
2026-04-15 15:47 3.65682 104.61235 40895 ft 479 kts 174°
2026-04-15 15:47 3.59042 104.61886 40908 ft 480 kts 174°
2026-04-15 15:48 3.52389 104.62539 40916 ft 480 kts 174°
2026-04-15 15:48 3.45786 104.63187 40905 ft 480 kts 174°
2026-04-15 15:49 3.39130 104.63840 40906 ft 481 kts 174°
2026-04-15 15:49 3.32460 104.64494 40902 ft 481 kts 174°
2026-04-15 15:50 3.25792 104.65148 40902 ft 481 kts 174°
2026-04-15 15:50 3.20238 104.65693 40909 ft 481 kts 174°
2026-04-15 15:51 3.12479 104.66455 40912 ft 482 kts 174°
2026-04-15 15:51 3.05828 104.66222 40908 ft 484 kts 194°
2026-04-15 15:52 3.02700 104.65009 40906 ft 484 kts 208°
2026-04-15 15:52 2.99912 104.63078 40908 ft 485 kts 221°
2026-04-15 15:52 2.95231 104.58185 40903 ft 488 kts 226°
2026-04-15 15:53 2.90587 104.53196 40903 ft 490 kts 226°
2026-04-15 15:53 2.85924 104.48206 40905 ft 490 kts 226°
2026-04-15 15:54 2.82060 104.44075 40906 ft 489 kts 226°
2026-04-15 15:54 2.76653 104.38296 40905 ft 489 kts 226°
2026-04-15 15:55 2.72000 104.33325 40900 ft 489 kts 226°
2026-04-15 15:55 2.67341 104.28348 40901 ft 489 kts 226°
2026-04-15 15:56 2.62704 104.23396 40347 ft 485 kts 226°
2026-04-15 15:56 2.60391 104.20925 39685 ft 486 kts 226°
2026-04-15 15:56 2.58109 104.18488 39099 ft 486 kts 226°
2026-04-15 15:57 2.55788 104.16011 38581 ft 484 kts 226°
2026-04-15 15:57 2.53482 104.13548 37973 ft 483 kts 226°
2026-04-15 15:57 2.51198 104.11107 37356 ft 481 kts 226°
2026-04-15 15:57 2.49016 104.08567 36778 ft 480 kts 232°
2026-04-15 15:58 2.47250 104.05750 36212 ft 479 kts 243°
2026-04-15 15:58 2.46001 104.02659 35711 ft 477 kts 252°
2026-04-15 15:58 2.45322 103.99422 35233 ft 475 kts 263°
2026-04-15 15:58 2.45242 103.96166 34784 ft 474 kts 273°
2026-04-15 15:59 2.45773 103.92929 34313 ft 473 kts 284°
2026-04-15 16:00 2.55438 103.81869 32057 ft 464 kts 339°
2026-04-15 16:00 2.62460 103.80802 31122 ft 453 kts
2026-04-15 16:01 2.65535 103.81359 30788 ft 439 kts 17°
2026-04-15 16:01 2.68262 103.82562 30171 ft 421 kts 34°
2026-04-15 16:01 2.70436 103.84472 29226 ft 412 kts 52°
2026-04-15 16:01 2.71846 103.86918 28225 ft 404 kts 71°
2026-04-15 16:02 2.72355 103.89643 27281 ft 397 kts 90°
2026-04-15 16:02 2.72145 103.92339 26373 ft 391 kts 95°
2026-04-15 16:02 2.72127 103.95041 25472 ft 386 kts 88°
2026-04-15 16:02 2.72252 103.97707 24617 ft 381 kts 85°
2026-04-15 16:03 2.72504 104.00335 23787 ft 377 kts 82°
2026-04-15 16:03 2.72903 104.02913 22855 ft 372 kts 79°
2026-04-15 16:03 2.73357 104.05444 21881 ft 367 kts 83°
2026-04-15 16:03 2.73175 104.07957 21003 ft 363 kts 100°
2026-04-15 16:04 2.72562 104.10396 20126 ft 358 kts 107°
2026-04-15 16:04 2.71639 104.12691 19312 ft 353 kts 116°
2026-04-15 16:04 2.70374 104.14786 18512 ft 349 kts 125°
2026-04-15 16:04 2.68808 104.16595 18055 ft 334 kts 137°
2026-04-15 16:05 2.66900 104.17878 17917 ft 336 kts 155°
2026-04-15 16:05 2.64736 104.18785 17852 ft 337 kts 160°
2026-04-15 16:05 2.62472 104.19327 17731 ft 334 kts 175°
2026-04-15 16:05 2.60174 104.19126 17593 ft 334 kts 195°
2026-04-15 16:06 2.58044 104.18164 17473 ft 337 kts 214°
2026-04-15 16:06 2.56332 104.16615 17352 ft 337 kts 227°
2026-04-15 16:06 2.54743 104.14885 17221 ft 338 kts 227°
2026-04-15 16:06 2.53135 104.13160 17098 ft 337 kts 226°
2026-04-15 16:07 2.51519 104.11456 16975 ft 337 kts 226°
2026-04-15 16:07 2.49733 104.09981 16743 ft 331 kts 206°
2026-04-15 16:07 2.45376 104.09696 16310 ft 316 kts 168°
2026-04-15 16:08 2.43203 104.10046 15982 ft 315 kts 172°
2026-04-15 16:08 2.41021 104.10249 15656 ft 315 kts 175°
2026-04-15 16:08 2.38822 104.10361 15307 ft 314 kts 177°
2026-04-15 16:08 2.36641 104.10423 14964 ft 314 kts 178°
2026-04-15 16:09 2.34452 104.10458 14625 ft 313 kts 178°
2026-04-15 16:09 2.32301 104.10477 14293 ft 313 kts 179°
2026-04-15 16:09 2.30126 104.10487 13953 ft 312 kts 179°
2026-04-15 16:09 2.27949 104.10493 13594 ft 312 kts 179°
2026-04-15 16:10 2.25787 104.10496 13246 ft 310 kts 179°
2026-04-15 16:10 2.23633 104.10499 12909 ft 307 kts 179°
2026-04-15 16:10 2.21493 104.10500 12589 ft 305 kts 179°
2026-04-15 16:10 2.19392 104.10501 12320 ft 300 kts 179°
2026-04-15 16:11 2.17332 104.10502 12013 ft 298 kts 179°
2026-04-15 16:11 2.15258 104.10502 11686 ft 297 kts 179°
2026-04-15 16:11 2.13197 104.10502 11362 ft 295 kts 180°
2026-04-15 16:11 2.11152 104.10503 11047 ft 294 kts 180°
2026-04-15 16:12 2.09139 104.10502 10915 ft 283 kts 180°
2026-04-15 16:12 2.07208 104.10502 10801 ft 272 kts 180°
2026-04-15 16:12 2.05344 104.10502 10663 ft 263 kts 180°
2026-04-15 16:12 2.03523 104.10502 10379 ft 260 kts 180°
2026-04-15 16:13 2.01720 104.10502 10106 ft 258 kts 180°
2026-04-15 16:13 1.99919 104.10502 9831 ft 256 kts 180°
2026-04-15 16:13 1.98167 104.10502 9536 ft 256 kts 180°
2026-04-15 16:13 1.96386 104.10507 9226 ft 255 kts 180°
2026-04-15 16:14 1.94608 104.10517 8959 ft 253 kts 180°
2026-04-15 16:14 1.92844 104.10517 8913 ft 261 kts 181°
2026-04-15 16:14 1.91000 104.10474 8752 ft 265 kts 183°
2026-04-15 16:14 1.89215 104.10387 8586 ft 251 kts 183°
2026-04-15 16:15 1.87521 104.10303 8245 ft 239 kts 183°
2026-04-15 16:15 1.85878 104.10227 7746 ft 235 kts 183°
2026-04-15 16:15 1.84269 104.10154 7369 ft 227 kts 183°
2026-04-15 16:15 1.82719 104.10086 7093 ft 221 kts 183°
2026-04-15 16:16 1.81184 104.10019 6839 ft 222 kts 182°
2026-04-15 16:16 1.79631 104.09952 6605 ft 223 kts 182°
2026-04-15 16:16 1.78084 104.09885 6350 ft 222 kts 182°
2026-04-15 16:16 1.76543 104.09819 6081 ft 220 kts 182°
2026-04-15 16:17 1.75017 104.09753 5830 ft 218 kts 182°
2026-04-15 16:17 1.73515 104.09689 5598 ft 216 kts 182°
2026-04-15 16:17 1.72012 104.09625 5346 ft 215 kts 182°
2026-04-15 16:17 1.70519 104.09561 5104 ft 215 kts 182°
2026-04-15 16:18 1.69025 104.09497 4860 ft 214 kts 182°
2026-04-15 16:18 1.67558 104.09434 4634 ft 213 kts 182°
2026-04-15 16:18 1.66081 104.09371 4392 ft 212 kts 182°
2026-04-15 16:18 1.64607 104.09308 4142 ft 211 kts 182°
2026-04-15 16:19 1.63137 104.09222 3907 ft 211 kts 187°
2026-04-15 16:19 1.61705 104.08925 3654 ft 211 kts 196°
2026-04-15 16:19 1.60769 104.08611 3519 ft 209 kts 200°
2026-04-15 16:19 1.60332 104.08444 3491 ft 208 kts 201°
2026-04-15 16:20 1.56740 104.06994 3478 ft 190 kts 202°
2026-04-15 16:20 1.55578 104.06500 3501 ft 172 kts 202°
2026-04-15 16:20 1.55226 104.06350 3526 ft 167 kts 202°
2026-04-15 16:21 1.53282 104.05539 3349 ft 191 kts 202°
2026-04-15 16:21 1.52463 104.05193 3131 ft 192 kts 202°
2026-04-15 16:21 1.49425 104.03902 2442 ft 186 kts 202°
2026-04-15 16:22 1.48245 104.03402 2226 ft 182 kts 202°
2026-04-15 16:22 1.47130 104.02928 1990 ft 167 kts 202°
2026-04-15 16:22 1.46105 104.02493 1784 ft 154 kts 202°
2026-04-15 16:22 1.45149 104.02088 1591 ft 143 kts 202°
2026-04-15 16:23 1.44268 104.01714 1408 ft 135 kts 202°
2026-04-15 16:23 1.43403 104.01347 1241 ft 135 kts 202°
2026-04-15 16:23 1.42538 104.00980 1061 ft 136 kts 202°
2026-04-15 16:23 1.41671 104.00612 904 ft 136 kts 202°
2026-04-15 16:24 1.40805 104.00244 734 ft 137 kts 202°
2026-04-15 16:24 1.39916 103.99874 542 ft 136 kts 201°
2026-04-15 16:24 1.39055 103.99513 370 ft 137 kts 202°
2026-04-15 16:24 1.38176 103.99131 183 ft 137 kts 202°
2026-04-15 16:25 1.37311 103.98767 56 ft 135 kts 199°
2026-04-15 16:25 1.36500 103.98433 37 ft 113 kts 205°
2026-04-15 16:25 1.36048 103.98232 37 ft 31 kts 203°
2026-04-15 16:25 1.35943 103.98187 37 ft 16 kts 202°
2026-04-15 16:26 1.35836 103.98143 37 ft 17 kts 200°
2026-04-15 16:26 1.35712 103.98114 37 ft 19 kts 186°
2026-04-15 16:26 1.35572 103.98119 37 ft 21 kts 173°
2026-04-15 16:26 1.35476 103.98130 37 ft 10 kts 173°
2026-04-15 16:27 1.35396 103.98138 37 ft 13 kts 180°
2026-04-15 16:27 1.35302 103.98111 37 ft 15 kts 201°
2026-04-15 16:27 1.35197 103.98068 37 ft 18 kts 203°
2026-04-15 16:27 1.35080 103.98019 37 ft 18 kts 203°
2026-04-15 16:28 1.34968 103.97971 37 ft 16 kts 203°
2026-04-15 16:28 1.34891 103.97939 37 ft 8 kts 203°
2026-04-15 16:28 1.34837 103.97947 37 ft 9 kts 143°
2026-04-15 16:28 1.34803 103.98006 37 ft 10 kts 114°
2026-04-15 16:29 1.34770 103.98078 37 ft 13 kts 114°
2026-04-15 16:29 1.34732 103.98165 37 ft 15 kts 113°
2026-04-15 16:29 1.34691 103.98261 43 ft 13 kts 113°
2026-04-15 16:29 1.34666 103.98321 48 ft 6 kts 112°
2026-04-15 16:30 1.34653 103.98352 53 ft 5 kts 112°
2026-04-15 16:30 1.34635 103.98396 49 ft 8 kts 112°
2026-04-15 16:30 1.34610 103.98456 53 ft 11 kts 113°
2026-04-15 16:30 1.34583 103.98519 45 ft 19 kts 113°
2026-04-15 16:31 1.34534 103.98630 37 ft 10 kts 114°
2026-04-15 16:31 1.34546 103.98694 37 ft 11 kts 48°
2026-04-15 16:31 1.34619 103.98734 35 ft 13 kts 24°
2026-04-15 16:31 1.34714 103.98775 37 ft 16 kts 23°
2026-04-15 16:32 1.34819 103.98819 37 ft 14 kts 22°
2026-04-15 16:32 1.34891 103.98849 37 ft 11 kts 23°
2026-04-15 16:32 1.34957 103.98877 37 ft 9 kts 23°
2026-04-15 16:32 1.35007 103.98874 37 ft 8 kts 322°
2026-04-15 16:33 1.35036 103.98832 37 ft 0 kts 294°
2026-04-15 16:33 1.35037 103.98831 37 ft 0 kts 294°
2026-04-15 16:33 1.35040 103.98824 37 ft 0 kts 295°
2026-04-15 16:34 1.35040 103.98823 37 ft 0 kts 295°
2026-04-15 16:34 1.35041 103.98823 37 ft 0 kts 294°
2026-04-15 16:34 1.35041 103.98821 37 ft 0 kts 294°